SAS1418 EKCH-ESSA

Flight info

Callsign SAS1418
Flight time 0h 58m
Altitude 41000
Route KEMAX N851 ROXEN DCT MIKNA N851 PELUP Z226 NILUG
Aircraft A359/H-SDE2E3GHIJ3J4J5LM1ORWXY/LB1D1

Departure

Time 2026-05-07 17:55
Airport Copenhagen Kastrup Airport (EKCH)

Arrival

Time 2026-05-07 18:53
Airport Stockholm-Arlanda Airport (ESSA)
Time Latitude Longitude Altitude Speed Heading
2026-05-07 17:25 55.62425 12.65062 28 ft 0 kts 269°
2026-05-07 17:47 55.62425 12.65090 27 ft 4 kts 264°
2026-05-07 17:47 55.62433 12.65134 24 ft 4 kts 233°
2026-05-07 17:47 55.62451 12.65167 24 ft 4 kts 213°
2026-05-07 17:48 55.62460 12.65178 26 ft 0 kts 212°
2026-05-07 17:50 55.62457 12.65176 26 ft 1 kts 207°
2026-05-07 17:51 55.62456 12.65176 26 ft 1 kts 203°
2026-05-07 17:51 55.62444 12.65176 26 ft 3 kts 180°
2026-05-07 17:51 55.62405 12.65184 27 ft 9 kts 173°
2026-05-07 17:51 55.62324 12.65195 28 ft 13 kts 182°
2026-05-07 17:52 55.62224 12.65190 29 ft 13 kts 198°
2026-05-07 17:52 55.62147 12.65109 31 ft 14 kts 211°
2026-05-07 17:52 55.62054 12.65000 27 ft 18 kts 213°
2026-05-07 17:52 55.61936 12.64866 28 ft 23 kts 213°
2026-05-07 17:53 55.61819 12.64733 27 ft 16 kts 213°
2026-05-07 17:53 55.61718 12.64617 29 ft 19 kts 213°
2026-05-07 17:53 55.61655 12.64442 29 ft 17 kts 264°
2026-05-07 17:53 55.61644 12.64223 26 ft 18 kts 266°
2026-05-07 17:54 55.61596 12.64031 31 ft 18 kts 228°
2026-05-07 17:54 55.61497 12.63866 26 ft 22 kts 220°
2026-05-07 17:54 55.61346 12.63636 30 ft 40 kts 221°
2026-05-07 17:54 55.60954 12.63030 27 ft 113 kts 221°
2026-05-07 17:55 55.60207 12.61882 238 ft 157 kts 219°
2026-05-07 17:55 55.59365 12.60614 1045 ft 162 kts 221°
2026-05-07 17:55 55.58466 12.59251 1644 ft 183 kts 223°
2026-05-07 17:55 55.57424 12.57632 2014 ft 214 kts 221°
2026-05-07 17:56 55.56076 12.56201 2502 ft 241 kts 204°
2026-05-07 17:56 55.54427 12.55333 3169 ft 258 kts 188°
2026-05-07 17:56 55.52633 12.55653 4062 ft 264 kts 158°
2026-05-07 17:56 55.51204 12.57637 4999 ft 265 kts 122°
2026-05-07 17:57 55.50662 12.60693 5972 ft 263 kts 88°
2026-05-07 17:57 55.50901 12.62770 6649 ft 263 kts 65°
2026-05-07 17:57 55.52573 12.65828 8018 ft 265 kts 31°
2026-05-07 17:57 55.54173 12.67515 9055 ft 270 kts 32°
2026-05-07 17:58 55.55775 12.69300 10097 ft 274 kts 34°
2026-05-07 17:58 55.57374 12.71219 10793 ft 291 kts 35°
2026-05-07 17:58 55.59098 12.73387 11216 ft 316 kts 36°
2026-05-07 17:58 55.60922 12.75748 11837 ft 332 kts 36°
2026-05-07 17:59 55.62802 12.78213 12683 ft 340 kts 36°
2026-05-07 17:59 55.64717 12.80739 13607 ft 346 kts 36°
2026-05-07 17:59 55.66661 12.83314 14464 ft 352 kts 36°
2026-05-07 17:59 55.68644 12.85947 15227 ft 359 kts 36°
2026-05-07 18:00 55.70663 12.88632 16001 ft 365 kts 36°
2026-05-07 18:00 55.72706 12.91355 16829 ft 370 kts 36°
2026-05-07 18:00 55.74779 12.94122 17680 ft 376 kts 36°
2026-05-07 18:00 55.76883 12.96936 18480 ft 381 kts 36°
2026-05-07 18:01 55.79004 12.99778 19047 ft 383 kts 36°
2026-05-07 18:01 55.81145 13.02649 19669 ft 388 kts 36°
2026-05-07 18:01 55.83310 13.05559 20467 ft 392 kts 36°
2026-05-07 18:01 55.85498 13.08501 21247 ft 396 kts 36°
2026-05-07 18:02 55.89911 13.14450 22727 ft 406 kts 36°
2026-05-07 18:02 55.92178 13.17512 23462 ft 411 kts 36°
2026-05-07 18:02 55.94469 13.20613 24151 ft 415 kts 36°
2026-05-07 18:03 55.96780 13.23745 24790 ft 418 kts 36°
2026-05-07 18:03 55.99103 13.26898 25458 ft 420 kts 36°
2026-05-07 18:03 56.01436 13.30071 26129 ft 423 kts 36°
2026-05-07 18:03 56.03786 13.33269 26773 ft 426 kts 36°
2026-05-07 18:04 56.06153 13.36497 27417 ft 429 kts 36°
2026-05-07 18:04 56.08531 13.39745 28067 ft 431 kts 36°
2026-05-07 18:04 56.10926 13.43022 28697 ft 435 kts 36°
2026-05-07 18:04 56.13340 13.46328 29273 ft 438 kts 36°
2026-05-07 18:05 56.15763 13.49566 29814 ft 442 kts 35°
2026-05-07 18:05 56.18264 13.52832 30376 ft 444 kts 34°
2026-05-07 18:05 56.20782 13.56094 30821 ft 448 kts 34°
2026-05-07 18:05 56.23324 13.59389 31323 ft 450 kts 35°
2026-05-07 18:06 56.25872 13.62709 31761 ft 453 kts 35°
2026-05-07 18:06 56.28431 13.66058 32218 ft 456 kts 35°
2026-05-07 18:06 56.30998 13.69433 32629 ft 459 kts 35°
2026-05-07 18:06 56.33581 13.72840 33070 ft 461 kts 35°
2026-05-07 18:07 56.36174 13.76265 33456 ft 464 kts 35°
2026-05-07 18:07 56.38757 13.79687 33805 ft 468 kts 35°
2026-05-07 18:07 56.41386 13.83181 34172 ft 470 kts 35°
2026-05-07 18:07 56.44030 13.86702 34443 ft 473 kts 35°
2026-05-07 18:08 56.46691 13.90250 34676 ft 477 kts 35°
2026-05-07 18:08 56.49373 13.93833 34930 ft 480 kts 35°
2026-05-07 18:08 56.52067 13.97437 35272 ft 481 kts 35°
2026-05-07 18:08 56.54740 14.01018 35554 ft 483 kts 35°
2026-05-07 18:09 56.57484 14.04700 35844 ft 485 kts 35°
2026-05-07 18:09 56.60168 14.08301 36091 ft 488 kts 35°
2026-05-07 18:09 56.62901 14.11981 36344 ft 490 kts 35°
2026-05-07 18:09 56.65645 14.15688 36636 ft 491 kts 35°
2026-05-07 18:10 56.68390 14.19403 36915 ft 493 kts 36°
2026-05-07 18:10 56.71144 14.23136 37199 ft 494 kts 36°
2026-05-07 18:10 56.73906 14.26887 37485 ft 496 kts 36°
2026-05-07 18:10 56.76678 14.30657 37765 ft 497 kts 36°
2026-05-07 18:11 56.79448 14.34432 38031 ft 498 kts 36°
2026-05-07 18:11 56.81290 14.36944 38208 ft 499 kts 36°
2026-05-07 18:11 56.85023 14.42048 38556 ft 501 kts 36°
2026-05-07 18:11 56.87786 14.45833 38793 ft 503 kts 36°
2026-05-07 18:12 56.90590 14.49681 39012 ft 503 kts 36°
2026-05-07 18:12 56.93392 14.53535 39241 ft 503 kts 36°
2026-05-07 18:12 56.96197 14.57401 39446 ft 504 kts 36°
2026-05-07 18:12 56.99002 14.61273 39667 ft 504 kts 36°
2026-05-07 18:13 57.01800 14.65144 39874 ft 504 kts 36°
2026-05-07 18:13 57.04603 14.69029 40080 ft 505 kts 36°
2026-05-07 18:13 57.06941 14.72275 40269 ft 505 kts 36°
2026-05-07 18:13 57.09625 14.76009 40467 ft 505 kts 36°
2026-05-07 18:14 57.12434 14.79923 40661 ft 506 kts 36°
2026-05-07 18:14 57.15239 14.83840 40851 ft 507 kts 36°
2026-05-07 18:14 57.17730 14.87325 41017 ft 507 kts 36°
2026-05-07 18:15 57.23359 14.95221 41097 ft 509 kts 36°
2026-05-07 18:15 57.28593 15.02591 41098 ft 509 kts 36°
2026-05-07 18:16 57.33854 15.10027 41098 ft 509 kts 36°
2026-05-07 18:16 57.39480 15.18009 41099 ft 510 kts 36°
2026-05-07 18:17 57.45075 15.25979 41107 ft 510 kts 36°
2026-05-07 18:17 57.50707 15.34034 41116 ft 510 kts 36°
2026-05-07 18:18 57.56328 15.42106 41124 ft 510 kts 36°
2026-05-07 18:18 57.61905 15.50145 41120 ft 510 kts 36°
2026-05-07 18:19 57.67513 15.58260 41125 ft 510 kts 36°
2026-05-07 18:19 57.73122 15.66412 41121 ft 510 kts 36°
2026-05-07 18:20 57.78722 15.74583 41132 ft 510 kts 36°
2026-05-07 18:20 57.84317 15.82779 41137 ft 510 kts 36°
2026-05-07 18:21 57.89917 15.91016 41134 ft 510 kts 36°
2026-05-07 18:21 57.95508 15.99268 40876 ft 510 kts 36°
2026-05-07 18:21 57.98298 16.03402 40417 ft 510 kts 36°
2026-05-07 18:22 58.01080 16.07534 40070 ft 509 kts 36°
2026-05-07 18:22 58.02922 16.10274 39855 ft 509 kts 36°
2026-05-07 18:22 58.06602 16.15760 39436 ft 509 kts 36°
2026-05-07 18:22 58.09381 16.19911 39094 ft 509 kts 36°
2026-05-07 18:23 58.12160 16.24069 38748 ft 509 kts 36°
2026-05-07 18:23 58.14932 16.28226 38331 ft 508 kts 36°
2026-05-07 18:23 58.17697 16.32382 37923 ft 507 kts 36°
2026-05-07 18:23 58.20459 16.36542 37461 ft 506 kts 36°
2026-05-07 18:24 58.23206 16.40688 36612 ft 503 kts 36°
2026-05-07 18:24 58.25880 16.44744 35710 ft 492 kts 36°
2026-05-07 18:24 58.28312 16.49337 34970 ft 483 kts 47°
2026-05-07 18:24 58.30377 16.54300 34300 ft 494 kts 49°
2026-05-07 18:25 58.32509 16.59624 33232 ft 503 kts 49°
2026-05-07 18:25 58.34590 16.64904 32052 ft 504 kts 50°
2026-05-07 18:25 58.36691 16.70274 30902 ft 505 kts 50°
2026-05-07 18:25 58.38777 16.75632 29719 ft 498 kts 50°
2026-05-07 18:26 58.40811 16.80878 28541 ft 485 kts 50°
2026-05-07 18:26 58.42780 16.85970 27758 ft 467 kts 50°
2026-05-07 18:26 58.44669 16.90869 27072 ft 448 kts 50°
2026-05-07 18:26 58.46459 16.95514 26441 ft 431 kts 50°
2026-05-07 18:27 58.48135 16.99873 25861 ft 418 kts 50°
2026-05-07 18:27 58.49558 17.03573 25313 ft 414 kts 50°
2026-05-07 18:27 58.51113 17.07617 24623 ft 412 kts 50°
2026-05-07 18:27 58.52197 17.10440 24150 ft 410 kts 50°
2026-05-07 18:28 58.54406 17.16213 23124 ft 405 kts 50°
2026-05-07 18:28 58.55886 17.20089 22383 ft 400 kts 50°
2026-05-07 18:28 58.57266 17.23710 21706 ft 396 kts 50°
2026-05-07 18:28 58.58769 17.27662 20977 ft 391 kts 50°
2026-05-07 18:29 58.60360 17.31852 20212 ft 386 kts 51°
2026-05-07 18:29 58.61928 17.35987 19427 ft 381 kts 51°
2026-05-07 18:29 58.62956 17.38703 18895 ft 377 kts 51°
2026-05-07 18:29 58.64977 17.44048 17775 ft 370 kts 51°
2026-05-07 18:30 58.66478 17.48028 16879 ft 364 kts 51°
2026-05-07 18:30 58.67951 17.51942 16020 ft 358 kts 51°
2026-05-07 18:30 58.68932 17.54551 15502 ft 354 kts 51°
2026-05-07 18:30 58.70347 17.58321 15045 ft 353 kts 51°
2026-05-07 18:31 58.71780 17.62138 14843 ft 350 kts 51°
2026-05-07 18:31 58.73194 17.65915 14661 ft 347 kts 51°
2026-05-07 18:31 58.74621 17.69646 14492 ft 345 kts 47°
2026-05-07 18:31 58.76331 17.72821 14315 ft 340 kts 32°
2026-05-07 18:32 58.78455 17.74967 14159 ft 345 kts 17°
2026-05-07 18:32 58.80704 17.76480 13981 ft 339 kts 14°
2026-05-07 18:32 58.82939 17.77846 13800 ft 336 kts 13°
2026-05-07 18:32 58.85169 17.79181 13599 ft 334 kts 13°
2026-05-07 18:33 58.87390 17.80504 13407 ft 333 kts 13°
2026-05-07 18:33 58.89605 17.81822 13156 ft 336 kts 13°
2026-05-07 18:33 58.91864 17.83161 12891 ft 342 kts 13°
2026-05-07 18:33 58.94169 17.84531 12657 ft 353 kts 13°
2026-05-07 18:34 58.96553 17.85950 12389 ft 361 kts 13°
2026-05-07 18:34 58.98956 17.87386 12122 ft 361 kts 14°
2026-05-07 18:34 59.01350 17.88820 11868 ft 359 kts 14°
2026-05-07 18:34 59.03688 17.90222 11605 ft 350 kts 14°
2026-05-07 18:35 59.05973 17.91596 11331 ft 336 kts 14°
2026-05-07 18:35 59.08161 17.92916 11171 ft 321 kts 13°
2026-05-07 18:35 59.10229 17.94167 11147 ft 302 kts 13°
2026-05-07 18:35 59.12179 17.95344 11150 ft 288 kts 13°
2026-05-07 18:36 59.14085 17.96489 11156 ft 286 kts 13°
2026-05-07 18:36 59.15991 17.97633 11157 ft 286 kts 13°
2026-05-07 18:36 59.17891 17.98777 11157 ft 286 kts 13°
2026-05-07 18:36 59.19792 17.99926 11157 ft 286 kts 13°
2026-05-07 18:37 59.21693 18.01075 11165 ft 286 kts 13°
2026-05-07 18:37 59.23596 18.02227 11157 ft 286 kts 13°
2026-05-07 18:37 59.25493 18.03376 11158 ft 285 kts 13°
2026-05-07 18:37 59.27389 18.04527 11158 ft 285 kts 13°
2026-05-07 18:38 59.29287 18.05681 11156 ft 285 kts 13°
2026-05-07 18:38 59.31186 18.06838 11156 ft 285 kts 13°
2026-05-07 18:38 59.33093 18.07900 11152 ft 283 kts
2026-05-07 18:38 59.35033 18.08507 11154 ft 282 kts
2026-05-07 18:39 59.36982 18.08951 11155 ft 282 kts
2026-05-07 18:39 59.38912 18.09372 11155 ft 282 kts
2026-05-07 18:39 59.40860 18.09795 11156 ft 282 kts
2026-05-07 18:39 59.42812 18.10219 11156 ft 282 kts
2026-05-07 18:40 59.44758 18.10642 11156 ft 282 kts
2026-05-07 18:40 59.46706 18.11066 11157 ft 282 kts
2026-05-07 18:40 59.48661 18.11492 10958 ft 281 kts
2026-05-07 18:40 59.50601 18.11909 10613 ft 279 kts
2026-05-07 18:41 59.52530 18.12309 10243 ft 278 kts
2026-05-07 18:41 59.54448 18.12700 9846 ft 276 kts
2026-05-07 18:41 59.56332 18.13073 9427 ft 275 kts
2026-05-07 18:41 59.58229 18.13433 8961 ft 273 kts
2026-05-07 18:42 59.60118 18.13772 8429 ft 270 kts
2026-05-07 18:42 59.61953 18.14083 7898 ft 259 kts
2026-05-07 18:42 59.63717 18.14363 7380 ft 250 kts
2026-05-07 18:42 59.65426 18.14617 6872 ft 243 kts
2026-05-07 18:43 59.67091 18.14844 6343 ft 236 kts
2026-05-07 18:43 59.68614 18.15036 5851 ft 232 kts
2026-05-07 18:43 59.70201 18.15227 5401 ft 225 kts
2026-05-07 18:43 59.71737 18.15401 5065 ft 219 kts
2026-05-07 18:44 59.73269 18.15558 4989 ft 220 kts
2026-05-07 18:44 59.74804 18.15708 4991 ft 220 kts
2026-05-07 18:44 59.76311 18.15857 4992 ft 219 kts
2026-05-07 18:44 59.77830 18.16009 4992 ft 219 kts
2026-05-07 18:45 59.79349 18.16166 5007 ft 218 kts
2026-05-07 18:45 59.80861 18.16353 4995 ft 217 kts
2026-05-07 18:45 59.82372 18.16542 4992 ft 217 kts
2026-05-07 18:45 59.83879 18.16734 4991 ft 217 kts
2026-05-07 18:46 59.85384 18.16851 4986 ft 216 kts 355°
2026-05-07 18:46 59.86769 18.15797 4993 ft 215 kts 321°
2026-05-07 18:46 59.87610 18.13432 4980 ft 204 kts 289°
2026-05-07 18:46 59.87888 18.10788 4871 ft 190 kts 279°
2026-05-07 18:47 59.88045 18.08204 4496 ft 187 kts 278°
2026-05-07 18:47 59.88198 18.05621 4123 ft 187 kts 277°
2026-05-07 18:47 59.88361 18.03059 3915 ft 190 kts 277°
2026-05-07 18:47 59.88315 18.00454 3680 ft 191 kts 250°
2026-05-07 18:48 59.87526 17.98406 3486 ft 188 kts 210°
2026-05-07 18:48 59.86291 17.97790 3280 ft 184 kts 174°
2026-05-07 18:48 59.85029 17.98211 3086 ft 184 kts 164°
2026-05-07 18:48 59.83797 17.98836 2874 ft 182 kts 162°
2026-05-07 18:49 59.82591 17.99477 2667 ft 180 kts 162°
2026-05-07 18:49 59.81383 18.00125 2509 ft 179 kts 162°
2026-05-07 18:49 59.80176 18.00794 2497 ft 179 kts 163°
2026-05-07 18:49 59.78944 18.01020 2491 ft 180 kts 187°
2026-05-07 18:50 59.77713 18.00534 2502 ft 180 kts 190°
2026-05-07 18:50 59.76486 18.00074 2504 ft 180 kts 188°
2026-05-07 18:50 59.75255 17.99648 2305 ft 178 kts 188°
2026-05-07 18:50 59.74040 17.99224 2062 ft 177 kts 189°
2026-05-07 18:51 59.72841 17.98781 1805 ft 175 kts 189°
2026-05-07 18:51 59.71686 17.98360 1560 ft 163 kts 188°
2026-05-07 18:51 59.70612 17.97971 1339 ft 151 kts 188°
2026-05-07 18:51 59.69616 17.97608 1130 ft 140 kts 188°
2026-05-07 18:52 59.68693 17.97272 944 ft 130 kts 188°
2026-05-07 18:52 59.67820 17.96948 774 ft 127 kts 188°
2026-05-07 18:52 59.66949 17.96628 595 ft 126 kts 186°
2026-05-07 18:52 59.66076 17.96339 415 ft 127 kts 188°
2026-05-07 18:53 59.65206 17.96012 253 ft 127 kts 188°
2026-05-07 18:53 59.64340 17.95693 155 ft 121 kts 187°
2026-05-07 18:53 59.63642 17.95440 151 ft 70 kts 190°
2026-05-07 18:53 59.63449 17.95365 150 ft 1 kts 205°
2026-05-07 18:54 59.63404 17.95291 148 ft 10 kts 217°
2026-05-07 18:54 59.63332 17.95182 145 ft 15 kts 218°
2026-05-07 18:54 59.63264 17.95059 144 ft 11 kts 230°
2026-05-07 18:54 59.63259 17.95042 144 ft 0 kts 243°
2026-05-07 18:55 59.63256 17.95029 144 ft 2 kts 246°
2026-05-07 18:55 59.63255 17.95023 144 ft 1 kts 249°
2026-05-07 18:55 59.63254 17.95015 144 ft 0 kts 253°
2026-05-07 18:57 59.63253 17.95007 144 ft 2 kts 253°
2026-05-07 18:57 59.63253 17.94982 144 ft 0 kts 271°
2026-05-07 18:58 59.63263 17.94952 144 ft 5 kts 316°
2026-05-07 18:59 59.63318 17.94923 144 ft 11 kts
2026-05-07 18:59 59.63420 17.94952 144 ft 17 kts 10°
2026-05-07 18:59 59.63549 17.94998 146 ft 20 kts 10°
2026-05-07 18:59 59.63691 17.95050 144 ft 21 kts 11°
2026-05-07 19:00 59.63802 17.95090 144 ft 13 kts 10°
2026-05-07 19:00 59.63905 17.95126 144 ft 17 kts 10°
2026-05-07 19:00 59.63999 17.95160 144 ft 12 kts 10°
2026-05-07 19:00 59.64098 17.95196 144 ft 16 kts 10°
2026-05-07 19:01 59.64198 17.95233 144 ft 15 kts 10°
2026-05-07 19:01 59.64314 17.95275 144 ft 19 kts
2026-05-07 19:01 59.64452 17.95323 144 ft 22 kts 10°
2026-05-07 19:01 59.64612 17.95378 144 ft 25 kts 10°
2026-05-07 19:02 59.64743 17.95432 144 ft 0 kts 13°
2026-05-07 19:02 59.64746 17.95433 144 ft 2 kts 11°
2026-05-07 19:02 59.64794 17.95449 144 ft 11 kts 10°
2026-05-07 19:02 59.64899 17.95486 144 ft 19 kts 11°
2026-05-07 19:03 59.65037 17.95515 144 ft 21 kts
2026-05-07 19:03 59.65160 17.95455 144 ft 16 kts 343°
2026-05-07 19:03 59.65279 17.95390 144 ft 20 kts 346°
2026-05-07 19:03 59.65422 17.95318 144 ft 23 kts 345°
2026-05-07 19:04 59.65585 17.95231 144 ft 26 kts 345°
2026-05-07 19:04 59.65754 17.95141 144 ft 20 kts 344°
2026-05-07 19:04 59.65824 17.94977 144 ft 16 kts 269°
2026-05-07 19:04 59.65801 17.94746 144 ft 19 kts 255°
2026-05-07 19:05 59.65765 17.94473 144 ft 22 kts 255°
2026-05-07 19:05 59.65724 17.94156 144 ft 25 kts 257°
2026-05-07 19:05 59.65681 17.93801 144 ft 28 kts 256°
2026-05-07 19:05 59.65642 17.93504 144 ft 0 kts 255°
2026-05-07 19:06 59.65638 17.93475 144 ft 7 kts 255°
2026-05-07 19:06 59.65597 17.93180 144 ft 10 kts 238°
2026-05-07 19:06 59.65514 17.93174 144 ft 16 kts 171°
2026-05-07 19:07 59.65417 17.93210 144 ft 10 kts 211°
2026-05-07 19:07 59.65392 17.93163 144 ft 3 kts 224°
2026-05-07 19:07 59.65385 17.93150 144 ft 0 kts 224°
2026-05-07 19:16 59.65385 17.93149 144 ft 0 kts 222°
2026-05-07 19:17 59.65384 17.93149 144 ft 0 kts 221°